Regional Weather Roundup
Issued by NWS Charleston, WV

Home | Current Version | Previous Version | Text Only | Print | Product List | Glossary Off
Versions: 1 2 3 4 5 6 7 8 9 10 11 12 13 14 15 16 17 18 19 20 21 22 23 24 25 26 27 28

000
ASUS41 KRLX 231010
RWRRLX
West Virginia Regional Weather Roundup
National Weather Service Charleston WV
600 AM EDT THU OCT 23 2014

Note: "fair" indicates few or no clouds below 12,000 feet with no
significant weather and/or obstructions to visibility.

WVZ003-231100-
Northern Panhandle of West Virginia

CITY           SKY/WX    TMP DP  RH WIND       PRES   REMARKS
WHEELING       PTCLDY    44  41  89 NW7       30.15R
$$

WVZ009-231100-
Northwest West Virginia

CITY           SKY/WX    TMP DP  RH WIND       PRES   REMARKS
PARKERSBURG    CLOUDY    46  41  82 NW6       30.22R
$$

WVZ006-231100-
Western West Virginia

CITY           SKY/WX    TMP DP  RH WIND       PRES   REMARKS
HUNTINGTON     CLOUDY    47  42  83 N3        30.21S
$$

WVZ015-231100-
West Central West Virginia

CITY           SKY/WX    TMP DP  RH WIND       PRES   REMARKS
CHARLESTON     CLOUDY    47  41  80 NW5       30.20S
$$

WVZ022-031-231100-
North Central West Virginia

CITY           SKY/WX    TMP DP  RH WIND       PRES   REMARKS
CLARKSBURG     CLOUDY    46  41  82 W5        30.15R
MORGANTOWN     CLOUDY    47  40  76 NW6       30.14R
$$

WVZ025-035-042-045-231100-
Southern West Virginia

CITY           SKY/WX    TMP DP  RH WIND       PRES   REMARKS
BECKLEY        CLOUDY    42  38  85 N10       30.15S
LOGAN          CLOUDY    45  43  93 VRB3      30.19R
BLUEFIELD      CLOUDY    43  38  82 VRB5      30.15S
LEWISBURG      CLOUDY    46  37  73 NW6       30.11S
$$

WVZ047-231100-
Northern Mountains of West Virginia

CITY           SKY/WX    TMP DP  RH WIND       PRES   REMARKS
ELKINS         CLOUDY    43  41  93 NW7       30.12S
$$

WVZ052-231100-
Eastern Panhandle of West Virginia

CITY           SKY/WX    TMP DP  RH WIND       PRES   REMARKS
MARTINSBURG    CLOUDY    52  39  61 NW17G25   29.96S
PETERSBURG     CLOUDY    50  39  64 NW9       30.06S
$$



USA.gov is the U.S. government's official web portal to all federal, state and local government web resources and services.